Location: Cussy
(47.0410°N, 4.6412°E)
Time: 19:58:40
(UTC+00:00)

USA 281 - Pass Details

Date: 30 November 2020
Orbit: 1074 x 1084 km, 106.0° (Epoch: 25 January)

Event Time Altitude Azimuth Distance (km) Brightness Sun altitude
Rises 18:08:58 0° 149° (SSE) 3,858 5.9 -22.2°
Reaches altitude 10° 18:11:27 10° 148° (SSE) 2,905 5.2 -22.6°
Maximum altitude 18:17:59 81° 62° (ENE) 1,093 3.1 -23.7°
Drops below altitude 10° 18:24:33 10° 337° (NNW) 2,921 5.7 -24.8°
Sets 18:27:04 0° 336° (NNW) 3,880 6.4 -25.3°
